This is the latest recevied weather packets stored in our database for station/object SQ7IQO. If no packets are shown the sender has not sent any weather packets the latest 10 day(s).
| Time | Temp. | Humidity | Pressure | Rain* | Wind** | Luminosity | Snow |
|---|---|---|---|---|---|---|---|
| 1787988521 | 16.67° C | 97% | 1001.8 hPa | 108.97 mm | 0.45 m/s, ° | - | - |
| 1787988461 | 16.67° C | 97% | 1013.7 hPa | 108.97 mm | 1.34 m/s, ° | - | - |
| 1787988401 | 16.67° C | 97% | 1013.7 hPa | 108.97 mm | 0.89 m/s, ° | - | - |
| 1787988341 | 16.67° C | 97% | 1013.6 hPa | 86.87 mm | 0.45 m/s, ° | - | - |
| 1787988281 | 16.67° C | 97% | 1013.6 hPa | 86.87 mm | 0.89 m/s, ° | - | - |
| 1787988221 | 16.67° C | 97% | 1013.6 hPa | 86.87 mm | 0.89 m/s, ° | - | - |
| 1787988161 | 16.67° C | 96% | 1225.7 hPa | 86.87 mm | 0.45 m/s, ° | - | - |
| 1787988101 | 16.67° C | 96% | 1013.6 hPa | 86.87 mm | 0.45 m/s, ° | - | - |
| 1787988041 | 16.67° C | 96% | 1013.6 hPa | 86.87 mm | 0 m/s | - | - |
| 1787987981 | 16.67° C | 96% | 1013.6 hPa | 86.87 mm | 1.34 m/s, ° | - | - |
| 1787987921 | 16.67° C | 97% | 1013.5 hPa | 86.87 mm | 1.79 m/s, ° | - | - |
| 1787987861 | 16.67° C | 97% | 1013.5 hPa | 86.87 mm | 0.89 m/s, ° | - | - |
| 1787987801 | 16.67° C | 97% | 1014.4 hPa | 86.87 mm | 0.89 m/s, ° | - | - |
| 1787987741 | 16.67° C | 97% | 1013.5 hPa | 66.8 mm | 1.34 m/s, ° | - | - |
| 1787987681 | 16.67° C | 97% | 1013.5 hPa | 66.8 mm | 0.89 m/s, ° | - | - |
| 1787987621 | 16.67° C | 97% | 1013.5 hPa | 66.8 mm | 0.89 m/s, ° | - | - |
| 1787987561 | 16.67° C | 97% | 1013.5 hPa | 66.8 mm | 0.45 m/s, ° | - | - |
| 1787987501 | 16.67° C | 97% | 1013.4 hPa | 44.96 mm | 0.89 m/s, ° | - | - |
| 1787987441 | 16.67° C | 98% | 1013.4 hPa | 44.96 mm | 0.89 m/s, ° | - | - |
| 1787987381 | 16.67° C | 98% | 1013.4 hPa | 44.96 mm | 0.89 m/s, ° | - | - |
| 1787987321 | 16.67° C | 98% | 1013.4 hPa | 44.96 mm | 0.45 m/s, ° | - | - |
| 1787987261 | 16.67° C | 98% | 1013.4 hPa | 44.96 mm | 0.89 m/s, ° | - | - |
| 1787987201 | 16.67° C | 98% | 1013.4 hPa | 44.96 mm | 0.89 m/s, ° | - | - |
| 1787987141 | 16.67° C | 98% | 1013.4 hPa | 44.96 mm | 0.89 m/s, ° | - | - |
| 1787987081 | 16.67° C | 97% | 1013.3 hPa | 44.96 mm | 0.45 m/s, ° | - | - |
* Rain latest hour (hover to see other rain measurements)
** Current wind speed in m/s (hover to see current wind gust speed)